GTI7840 KMKE-KPDX

Flight info

Callsign GTI7840
Flight time 3h 41m
Altitude 32000
Route DCT HAWKN DCT DLL DCT LAAKE DCT SMERF Q146 KIXCO/N0470F340 Q146 CUSDA DCT FINUT DCT JORAD HHOOD6
Aircraft B77L/H-SDE1E2E3FGHIJ2J3J4J5M1RWXY/LB1D1

Departure

Time 2026-04-22 00:18
Airport General Mitchell International Airport (KMKE)

Arrival

Time 2026-04-22 04:00
Airport Portland International Airport (KPDX)
Time Latitude Longitude Altitude Speed Heading
2026-04-22 00:12 42.94254 -87.91247 685 ft 0 kts 111°
2026-04-22 00:12 42.94249 -87.91234 686 ft 5 kts 119°
2026-04-22 00:12 42.94190 -87.91117 685 ft 18 kts 91°
2026-04-22 00:12 42.94224 -87.90961 685 ft 11 kts 72°
2026-04-22 00:13 42.94249 -87.90855 688 ft 12 kts 72°
2026-04-22 00:13 42.94274 -87.90750 685 ft 12 kts 72°
2026-04-22 00:13 42.94299 -87.90643 688 ft 12 kts 72°
2026-04-22 00:13 42.94325 -87.90534 689 ft 12 kts 72°
2026-04-22 00:14 42.94351 -87.90424 686 ft 12 kts 72°
2026-04-22 00:14 42.94378 -87.90314 687 ft 12 kts 71°
2026-04-22 00:14 42.94414 -87.90172 689 ft 19 kts 70°
2026-04-22 00:14 42.94457 -87.89999 689 ft 19 kts 71°
2026-04-22 00:15 42.94499 -87.89826 687 ft 19 kts 72°
2026-04-22 00:15 42.94562 -87.89670 684 ft 19 kts 33°
2026-04-22 00:15 42.94621 -87.89530 691 ft 19 kts 99°
2026-04-22 00:15 42.94615 -87.89349 690 ft 19 kts 76°
2026-04-22 00:16 42.94656 -87.89175 691 ft 19 kts 72°
2026-04-22 00:16 42.94692 -87.89023 688 ft 4 kts 72°
2026-04-22 00:16 42.94699 -87.88913 686 ft 22 kts 114°
2026-04-22 00:16 42.94607 -87.88929 686 ft 14 kts 249°
2026-04-22 00:17 42.94582 -87.89017 688 ft 0 kts 249°
2026-04-22 00:18 42.94546 -87.89154 688 ft 55 kts 250°
2026-04-22 00:18 42.94322 -87.90089 690 ft 149 kts 251°
2026-04-22 00:18 42.93946 -87.91599 1317 ft 175 kts 251°
2026-04-22 00:18 42.93730 -87.93255 2296 ft 183 kts 272°
2026-04-22 00:19 42.94252 -87.94968 2806 ft 217 kts 311°
2026-04-22 00:19 42.95492 -87.96214 3642 ft 224 kts 323°
2026-04-22 00:19 42.96794 -87.97388 4514 ft 227 kts 326°
2026-04-22 00:19 42.98150 -87.98603 4945 ft 241 kts 326°
2026-04-22 00:20 42.99605 -87.99902 4996 ft 254 kts 326°
2026-04-22 00:20 43.01103 -88.01235 5036 ft 260 kts 326°
2026-04-22 00:20 43.02619 -88.02588 5590 ft 259 kts 326°
2026-04-22 00:20 43.04127 -88.03936 6678 ft 258 kts 326°
2026-04-22 00:21 43.05623 -88.05277 7736 ft 257 kts 326°
2026-04-22 00:21 43.07126 -88.06625 8715 ft 260 kts 326°
2026-04-22 00:21 43.08647 -88.07992 9683 ft 263 kts 326°
2026-04-22 00:21 43.10187 -88.09378 10502 ft 270 kts 326°
2026-04-22 00:22 43.11823 -88.10853 10830 ft 296 kts 325°
2026-04-22 00:22 43.13628 -88.12484 11073 ft 326 kts 325°
2026-04-22 00:22 43.15581 -88.14248 11579 ft 343 kts 325°
2026-04-22 00:22 43.17602 -88.16071 12491 ft 351 kts 325°
2026-04-22 00:23 43.19654 -88.17925 13526 ft 356 kts 324°
2026-04-22 00:23 43.21735 -88.19806 14467 ft 360 kts 324°
2026-04-22 00:23 43.23842 -88.21714 15335 ft 366 kts 324°
2026-04-22 00:23 43.25979 -88.23650 16213 ft 371 kts 324°
2026-04-22 00:24 43.28064 -88.25735 16952 ft 373 kts 315°
2026-04-22 00:24 43.29705 -88.28529 17697 ft 380 kts 301°
2026-04-22 00:24 43.30861 -88.31809 18512 ft 384 kts 289°
2026-04-22 00:24 43.31555 -88.35360 19204 ft 388 kts 284°
2026-04-22 00:25 43.32169 -88.38994 19922 ft 393 kts 284°
2026-04-22 00:25 43.32774 -88.42666 20686 ft 396 kts 284°
2026-04-22 00:25 43.33385 -88.46374 21457 ft 400 kts 284°
2026-04-22 00:25 43.34010 -88.50117 22191 ft 404 kts 284°
2026-04-22 00:26 43.34649 -88.53899 22915 ft 409 kts 284°
2026-04-22 00:26 43.35301 -88.57722 23595 ft 413 kts 284°
2026-04-22 00:26 43.35962 -88.61582 24212 ft 417 kts 284°
2026-04-22 00:26 43.36629 -88.65471 24863 ft 419 kts 285°
2026-04-22 00:27 43.37301 -88.69386 25499 ft 422 kts 285°
2026-04-22 00:27 43.37975 -88.73318 26118 ft 425 kts 285°
2026-04-22 00:27 43.38655 -88.77292 26706 ft 429 kts 285°
2026-04-22 00:27 43.39338 -88.81297 27293 ft 432 kts 285°
2026-04-22 00:28 43.40025 -88.85331 27872 ft 435 kts 285°
2026-04-22 00:28 43.40717 -88.89401 28410 ft 439 kts 285°
2026-04-22 00:28 43.41408 -88.93487 29099 ft 438 kts 285°
2026-04-22 00:28 43.42095 -88.97557 29962 ft 435 kts 286°
2026-04-22 00:29 43.42773 -89.01590 30697 ft 432 kts 287°
2026-04-22 00:29 43.43445 -89.05595 31375 ft 429 kts 287°
2026-04-22 00:29 43.44117 -89.09600 31908 ft 430 kts 288°
2026-04-22 00:30 43.45473 -89.17682 31977 ft 433 kts 288°
2026-04-22 00:30 43.46805 -89.25707 31963 ft 428 kts 288°
2026-04-22 00:31 43.48130 -89.33700 31987 ft 429 kts 288°
2026-04-22 00:31 43.49453 -89.41718 31985 ft 430 kts 288°
2026-04-22 00:32 43.50765 -89.49703 31991 ft 431 kts 288°
2026-04-22 00:32 43.52079 -89.57753 31995 ft 431 kts 288°
2026-04-22 00:33 43.53390 -89.65813 31999 ft 431 kts 288°
2026-04-22 00:33 43.54718 -89.73872 32002 ft 430 kts 290°
2026-04-22 00:34 43.56741 -89.81570 32049 ft 430 kts 299°
2026-04-22 00:34 43.58010 -89.85350 32253 ft 437 kts 299°
2026-04-22 00:34 43.59280 -89.89166 32645 ft 439 kts 300°
2026-04-22 00:34 43.60541 -89.92991 33163 ft 437 kts 300°
2026-04-22 00:35 43.61787 -89.96795 33739 ft 434 kts 300°
2026-04-22 00:35 43.63024 -90.00583 34236 ft 431 kts 300°
2026-04-22 00:35 43.64248 -90.04343 34719 ft 429 kts 300°
2026-04-22 00:35 43.65467 -90.08089 35147 ft 427 kts 300°
2026-04-22 00:36 43.66681 -90.11823 35546 ft 426 kts 300°
2026-04-22 00:36 43.67894 -90.15558 35932 ft 425 kts 300°
2026-04-22 00:36 43.69100 -90.19278 36333 ft 424 kts 300°
2026-04-22 00:36 43.70303 -90.22992 36734 ft 423 kts 300°
2026-04-22 00:37 43.71499 -90.26694 37125 ft 421 kts 300°
2026-04-22 00:37 43.72693 -90.30390 37474 ft 421 kts 300°
2026-04-22 00:37 43.73883 -90.34081 37834 ft 420 kts 299°
2026-04-22 00:38 43.76279 -90.41519 37940 ft 425 kts 299°
2026-04-22 00:38 43.78659 -90.48946 37960 ft 419 kts 299°
2026-04-22 00:39 43.80990 -90.56238 37959 ft 416 kts 299°
2026-04-22 00:39 43.83322 -90.63546 37979 ft 414 kts 299°
2026-04-22 00:40 43.85645 -90.70845 37970 ft 414 kts 299°
2026-04-22 00:40 43.87964 -90.78153 37944 ft 414 kts 299°
2026-04-22 00:41 43.90276 -90.85460 37958 ft 414 kts 299°
2026-04-22 00:41 43.92584 -90.92775 37961 ft 414 kts 298°
2026-04-22 00:42 43.94890 -91.00105 37978 ft 414 kts 298°
2026-04-22 00:42 43.97192 -91.07441 37971 ft 415 kts 298°
2026-04-22 00:43 43.99490 -91.14788 37962 ft 415 kts 298°
2026-04-22 00:43 44.01786 -91.22146 37971 ft 415 kts 298°
2026-04-22 00:44 44.04076 -91.29507 37982 ft 415 kts 298°
2026-04-22 00:44 44.06360 -91.36873 37978 ft 415 kts 298°
2026-04-22 00:45 44.08619 -91.44180 37992 ft 414 kts 298°
2026-04-22 00:45 44.10890 -91.51542 38004 ft 413 kts 298°
2026-04-22 00:46 44.13150 -91.58889 38001 ft 412 kts 298°
2026-04-22 00:46 44.15399 -91.66224 38012 ft 412 kts 298°
2026-04-22 00:47 44.17645 -91.73566 38004 ft 412 kts 298°
2026-04-22 00:47 44.19886 -91.80913 38000 ft 412 kts 298°
2026-04-22 00:48 44.22120 -91.88263 38015 ft 412 kts 297°
2026-04-22 00:48 44.24348 -91.95610 38001 ft 411 kts 297°
2026-04-22 00:49 44.26570 -92.02961 38006 ft 411 kts 297°
2026-04-22 00:49 44.28786 -92.10315 38000 ft 411 kts 297°
2026-04-22 00:50 44.30999 -92.17675 38020 ft 411 kts 297°
2026-04-22 00:50 44.33210 -92.25049 38023 ft 412 kts 297°
2026-04-22 00:51 44.35414 -92.32427 38017 ft 411 kts 297°
2026-04-22 00:51 44.37243 -92.38563 38015 ft 412 kts 297°
2026-04-22 00:52 44.39441 -92.45956 38015 ft 412 kts 297°
2026-04-22 00:52 44.41634 -92.53356 38010 ft 412 kts 296°
2026-04-22 00:53 44.43821 -92.60758 38003 ft 412 kts 296°
2026-04-22 00:53 44.46003 -92.68164 37999 ft 411 kts 296°
2026-04-22 00:54 44.48178 -92.75568 38016 ft 411 kts 296°
2026-04-22 00:54 44.50347 -92.82974 38029 ft 411 kts 296°
2026-04-22 00:55 44.52511 -92.90383 38026 ft 411 kts 296°
2026-04-22 00:55 44.55747 -93.01504 38025 ft 411 kts 296°
2026-04-22 00:56 44.57898 -93.08921 38059 ft 410 kts 295°
2026-04-22 00:56 44.60108 -93.16288 38057 ft 409 kts 297°
2026-04-22 00:57 44.62492 -93.23538 38051 ft 409 kts 298°
2026-04-22 00:57 44.64884 -93.30776 38055 ft 409 kts 298°
2026-04-22 00:58 44.67251 -93.38029 38050 ft 409 kts 297°
2026-04-22 00:58 44.69604 -93.45302 38027 ft 409 kts 297°
2026-04-22 00:59 44.71947 -93.52581 38025 ft 409 kts 297°
2026-04-22 00:59 44.74284 -93.59862 38028 ft 409 kts 297°
2026-04-22 01:00 44.76617 -93.67152 38025 ft 408 kts 297°
2026-04-22 01:00 44.78930 -93.74397 38031 ft 408 kts 297°
2026-04-22 01:01 44.81251 -93.81691 38019 ft 409 kts 297°
2026-04-22 01:01 44.83570 -93.88996 38041 ft 409 kts 297°
2026-04-22 01:02 44.85889 -93.96323 38042 ft 409 kts 297°
2026-04-22 01:02 44.88205 -94.03660 38046 ft 410 kts 297°
2026-04-22 01:03 44.90518 -94.11010 38048 ft 410 kts 297°
2026-04-22 01:03 44.92829 -94.18374 38085 ft 411 kts 296°
2026-04-22 01:04 44.95137 -94.25749 38057 ft 411 kts 296°
2026-04-22 01:04 44.97439 -94.33126 38062 ft 411 kts 296°
2026-04-22 01:05 44.99735 -94.40507 38061 ft 410 kts 296°
2026-04-22 01:05 45.02027 -94.47895 38053 ft 410 kts 296°
2026-04-22 01:06 45.04312 -94.55281 38052 ft 410 kts 296°
2026-04-22 01:06 45.06592 -94.62671 38046 ft 410 kts 295°
2026-04-22 01:07 45.08866 -94.70063 38060 ft 410 kts 295°
2026-04-22 01:07 45.11132 -94.77451 38050 ft 409 kts 295°
2026-04-22 01:08 45.13394 -94.84851 38043 ft 409 kts 295°
2026-04-22 01:08 45.15648 -94.92243 38040 ft 409 kts 295°
2026-04-22 01:09 45.17898 -94.99642 38039 ft 409 kts 295°
2026-04-22 01:09 45.20142 -95.07044 38034 ft 408 kts 295°
2026-04-22 01:10 45.22380 -95.14447 38037 ft 409 kts 295°
2026-04-22 01:10 45.24616 -95.21865 38038 ft 409 kts 295°
2026-04-22 01:11 45.26847 -95.29290 38054 ft 409 kts 295°
2026-04-22 01:11 45.29074 -95.36725 38044 ft 409 kts 294°
2026-04-22 01:12 45.31284 -95.44121 38038 ft 409 kts 294°
2026-04-22 01:12 45.33502 -95.51567 38055 ft 409 kts 294°
2026-04-22 01:13 45.35714 -95.59019 38056 ft 410 kts 294°
2026-04-22 01:13 45.37925 -95.66485 38035 ft 410 kts 294°
2026-04-22 01:14 45.40133 -95.73964 38035 ft 410 kts 294°
2026-04-22 01:14 45.42338 -95.81457 38037 ft 410 kts 294°
2026-04-22 01:15 45.44538 -95.88951 38033 ft 410 kts 294°
2026-04-22 01:15 45.46731 -95.96452 38024 ft 410 kts 294°
2026-04-22 01:16 45.48921 -96.03958 38026 ft 410 kts 294°
2026-04-22 01:16 45.51105 -96.11469 38025 ft 410 kts 294°
2026-04-22 01:17 45.53282 -96.18978 38027 ft 410 kts 293°
2026-04-22 01:17 45.55454 -96.26495 38015 ft 410 kts 293°
2026-04-22 01:18 45.57621 -96.34014 38029 ft 410 kts 293°
2026-04-22 01:18 45.59783 -96.41541 38048 ft 410 kts 293°
2026-04-22 01:19 45.61942 -96.49080 38027 ft 410 kts 293°
2026-04-22 01:19 45.64081 -96.56569 38021 ft 410 kts 293°
2026-04-22 01:20 45.66225 -96.64103 38015 ft 409 kts 293°
2026-04-22 01:20 45.68378 -96.71689 38014 ft 409 kts 292°
2026-04-22 01:21 45.70510 -96.79226 38010 ft 409 kts 292°
2026-04-22 01:21 45.72623 -96.86721 38010 ft 409 kts 292°
2026-04-22 01:22 45.74746 -96.94269 38011 ft 409 kts 292°
2026-04-22 01:22 45.76864 -97.01825 38019 ft 409 kts 292°
2026-04-22 01:23 45.78977 -97.09390 37990 ft 409 kts 292°
2026-04-22 01:23 45.81085 -97.16958 38004 ft 409 kts 292°
2026-04-22 01:24 45.83185 -97.24522 38008 ft 409 kts 292°
2026-04-22 01:24 45.85283 -97.32101 38012 ft 409 kts 292°
2026-04-22 01:25 45.87376 -97.39688 38011 ft 409 kts 292°
2026-04-22 01:25 45.89467 -97.47287 38009 ft 409 kts 292°
2026-04-22 01:26 45.91542 -97.54903 38003 ft 410 kts 290°
2026-04-22 01:26 45.93039 -97.62811 38004 ft 411 kts 284°
2026-04-22 01:27 45.94235 -97.70831 37997 ft 410 kts 284°
2026-04-22 01:27 45.95440 -97.78843 37999 ft 410 kts 284°
2026-04-22 01:28 45.96643 -97.86838 38002 ft 409 kts 284°
2026-04-22 01:28 45.97842 -97.94828 37988 ft 409 kts 283°
2026-04-22 01:29 45.99034 -98.02812 38003 ft 408 kts 283°
2026-04-22 01:29 46.00219 -98.10791 38007 ft 408 kts 283°
2026-04-22 01:30 46.01400 -98.18783 38007 ft 408 kts 283°
2026-04-22 01:30 46.02575 -98.26776 38009 ft 409 kts 283°
2026-04-22 01:31 46.03745 -98.34781 37983 ft 409 kts 283°
2026-04-22 01:31 46.04911 -98.42792 38004 ft 409 kts 283°
2026-04-22 01:32 46.06066 -98.50775 38011 ft 411 kts 283°
2026-04-22 01:32 46.07232 -98.58880 38008 ft 411 kts 283°
2026-04-22 01:33 46.08378 -98.66884 38007 ft 411 kts 283°
2026-04-22 01:33 46.09527 -98.74952 38007 ft 411 kts 283°
2026-04-22 01:34 46.10669 -98.83013 37997 ft 411 kts 282°
2026-04-22 01:34 46.11807 -98.91091 38006 ft 411 kts 282°
2026-04-22 01:35 46.12941 -98.99180 37999 ft 412 kts 282°
2026-04-22 01:35 46.14072 -99.07297 37999 ft 413 kts 282°
2026-04-22 01:36 46.15199 -99.15422 37993 ft 414 kts 282°
2026-04-22 01:36 46.16321 -99.23564 37992 ft 414 kts 282°
2026-04-22 01:37 46.17438 -99.31723 37987 ft 415 kts 282°
2026-04-22 01:37 46.18554 -99.39900 38004 ft 416 kts 282°
2026-04-22 01:38 46.19664 -99.48092 37980 ft 416 kts 282°
2026-04-22 01:38 46.20581 -99.54900 37978 ft 416 kts 282°
2026-04-22 01:39 46.21679 -99.63083 37958 ft 415 kts 281°
2026-04-22 01:39 46.22771 -99.71267 37976 ft 415 kts 281°
2026-04-22 01:40 46.24032 -99.80781 37976 ft 415 kts 281°
2026-04-22 01:40 46.24937 -99.87650 37962 ft 416 kts 281°
2026-04-22 01:41 46.26012 -99.95853 37963 ft 416 kts 281°
2026-04-22 01:41 46.27081 -100.04058 37950 ft 416 kts 281°
2026-04-22 01:42 46.28145 -100.12279 37953 ft 416 kts 281°
2026-04-22 01:42 46.29206 -100.20515 37953 ft 417 kts 281°
2026-04-22 01:43 46.30256 -100.28714 37958 ft 418 kts 281°
2026-04-22 01:43 46.31308 -100.36981 37951 ft 418 kts 280°
2026-04-22 01:44 46.32355 -100.45266 37955 ft 419 kts 280°
2026-04-22 01:44 46.33397 -100.53552 37942 ft 419 kts 280°
2026-04-22 01:45 46.34433 -100.61851 37943 ft 419 kts 280°
2026-04-22 01:45 46.35465 -100.70159 37947 ft 419 kts 280°
2026-04-22 01:46 46.36491 -100.78472 37945 ft 420 kts 280°
2026-04-22 01:46 46.37511 -100.86784 37952 ft 420 kts 280°
2026-04-22 01:47 46.38367 -100.95139 37953 ft 419 kts 276°
2026-04-22 01:47 46.38989 -101.03543 37953 ft 420 kts 276°
2026-04-22 01:48 46.39593 -101.11950 37953 ft 420 kts 276°
2026-04-22 01:48 46.40202 -101.20368 37957 ft 420 kts 276°
2026-04-22 01:49 46.40813 -101.28790 37953 ft 420 kts 276°
2026-04-22 01:49 46.41420 -101.37216 37958 ft 420 kts 276°
2026-04-22 01:50 46.42021 -101.45643 37957 ft 421 kts 276°
2026-04-22 01:50 46.42616 -101.54078 37949 ft 421 kts 276°
2026-04-22 01:51 46.43205 -101.62513 37954 ft 421 kts 275°
2026-04-22 01:51 46.43787 -101.70946 37956 ft 420 kts 275°
2026-04-22 01:52 46.44363 -101.79379 37953 ft 420 kts 275°
2026-04-22 01:52 46.44933 -101.87813 37946 ft 420 kts 275°
2026-04-22 01:53 46.45496 -101.96247 37946 ft 420 kts 275°
2026-04-22 01:53 46.46052 -102.04677 37944 ft 420 kts 275°
2026-04-22 01:54 46.46603 -102.13113 37948 ft 420 kts 275°
2026-04-22 01:54 46.47148 -102.21547 37944 ft 420 kts 275°
2026-04-22 01:55 46.47686 -102.29993 37944 ft 421 kts 275°
2026-04-22 01:55 46.48219 -102.38442 37941 ft 421 kts 275°
2026-04-22 01:56 46.48747 -102.46907 37944 ft 421 kts 275°
2026-04-22 01:56 46.49268 -102.55378 37961 ft 421 kts 275°
2026-04-22 01:57 46.49780 -102.63793 37930 ft 421 kts 274°
2026-04-22 01:57 46.50287 -102.72238 37930 ft 420 kts 274°
2026-04-22 01:58 46.50787 -102.80673 37918 ft 419 kts 274°
2026-04-22 01:58 46.51280 -102.89096 37920 ft 418 kts 274°
2026-04-22 01:59 46.51767 -102.97512 37918 ft 418 kts 274°
2026-04-22 01:59 46.52247 -103.05927 37903 ft 419 kts 273°
2026-04-22 02:00 46.52722 -103.14369 37918 ft 420 kts 273°
2026-04-22 02:00 46.53194 -103.22851 37918 ft 422 kts 273°
2026-04-22 02:01 46.53661 -103.31363 37915 ft 424 kts 273°
2026-04-22 02:01 46.54123 -103.39909 37908 ft 425 kts 273°
2026-04-22 02:02 46.54580 -103.48488 37906 ft 426 kts 272°
2026-04-22 02:02 46.55032 -103.57075 37915 ft 427 kts 272°
2026-04-22 02:03 46.55478 -103.65689 37914 ft 428 kts 272°
2026-04-22 02:03 46.55918 -103.74309 37940 ft 428 kts 272°
2026-04-22 02:04 46.56565 -103.87196 37917 ft 424 kts 272°
2026-04-22 02:05 46.56983 -103.95716 37910 ft 421 kts 272°
2026-04-22 02:05 46.57393 -104.04176 37916 ft 418 kts 272°
2026-04-22 02:06 46.57794 -104.12592 37916 ft 417 kts 272°
2026-04-22 02:06 46.58188 -104.20987 37919 ft 416 kts 272°
2026-04-22 02:07 46.58576 -104.29383 37925 ft 417 kts 272°
2026-04-22 02:07 46.58958 -104.37798 37910 ft 418 kts 272°
2026-04-22 02:08 46.59336 -104.46241 37915 ft 419 kts 272°
2026-04-22 02:08 46.59709 -104.54695 37910 ft 420 kts 271°
2026-04-22 02:09 46.60124 -104.63165 37909 ft 421 kts 273°
2026-04-22 02:09 46.60754 -104.71629 37892 ft 421 kts 274°
2026-04-22 02:10 46.61414 -104.80104 37895 ft 422 kts 274°
2026-04-22 02:10 46.62047 -104.88591 37919 ft 422 kts 273°
2026-04-22 02:11 46.62659 -104.97093 37895 ft 422 kts 273°
2026-04-22 02:11 46.63259 -105.05590 37897 ft 422 kts 273°
2026-04-22 02:12 46.63848 -105.14025 37886 ft 422 kts 273°
2026-04-22 02:12 46.64433 -105.22507 37892 ft 421 kts 273°
2026-04-22 02:13 46.65013 -105.30995 37884 ft 421 kts 273°
2026-04-22 02:13 46.65586 -105.39480 37887 ft 421 kts 272°
2026-04-22 02:14 46.66153 -105.47967 37883 ft 421 kts 272°
2026-04-22 02:14 46.66714 -105.56463 37883 ft 421 kts 272°
2026-04-22 02:15 46.67269 -105.64964 37881 ft 422 kts 272°
2026-04-22 02:15 46.67818 -105.73476 37879 ft 423 kts 272°
2026-04-22 02:16 46.68362 -105.82007 37881 ft 423 kts 272°
2026-04-22 02:16 46.68901 -105.90549 37900 ft 424 kts 272°
2026-04-22 02:17 46.69434 -105.99102 37878 ft 424 kts 272°
2026-04-22 02:17 46.69961 -106.07668 37879 ft 425 kts 272°
2026-04-22 02:18 46.70481 -106.16240 37870 ft 425 kts 272°
2026-04-22 02:18 46.70996 -106.24820 37866 ft 425 kts 272°
2026-04-22 02:19 46.71505 -106.33404 37873 ft 425 kts 272°
2026-04-22 02:19 46.72006 -106.41979 37872 ft 425 kts 272°
2026-04-22 02:20 46.72502 -106.50567 37859 ft 426 kts 271°
2026-04-22 02:20 46.72989 -106.59116 37868 ft 427 kts 271°
2026-04-22 02:21 46.73474 -106.67742 37864 ft 428 kts 271°
2026-04-22 02:21 46.73954 -106.76401 37864 ft 429 kts 271°
2026-04-22 02:22 46.74428 -106.85073 37857 ft 429 kts 271°
2026-04-22 02:22 46.74896 -106.93753 37866 ft 430 kts 271°
2026-04-22 02:23 46.75359 -107.02458 37855 ft 431 kts 271°
2026-04-22 02:23 46.75816 -107.11173 37852 ft 431 kts 271°
2026-04-22 02:24 46.76266 -107.19897 37859 ft 431 kts 271°
2026-04-22 02:24 46.76710 -107.28616 37857 ft 431 kts 271°
2026-04-22 02:25 46.77146 -107.37330 37853 ft 431 kts 270°
2026-04-22 02:25 46.77576 -107.46051 37856 ft 431 kts 270°
2026-04-22 02:26 46.77928 -107.53300 37847 ft 431 kts 270°
2026-04-22 02:26 46.78346 -107.62024 37848 ft 431 kts 270°
2026-04-22 02:27 46.78826 -107.72222 37828 ft 431 kts 270°
2026-04-22 02:27 46.79162 -107.79467 37848 ft 431 kts 270°
2026-04-22 02:28 46.79560 -107.88201 37819 ft 431 kts 270°
2026-04-22 02:28 46.79952 -107.96933 37835 ft 431 kts 270°
2026-04-22 02:29 46.80337 -108.05671 37814 ft 431 kts 270°
2026-04-22 02:29 46.80715 -108.14408 37806 ft 431 kts 270°
2026-04-22 02:30 46.81087 -108.23140 37792 ft 431 kts 269°
2026-04-22 02:30 46.81451 -108.31882 37809 ft 432 kts 269°
2026-04-22 02:31 46.81811 -108.40653 37806 ft 433 kts 269°
2026-04-22 02:31 46.82165 -108.49448 37802 ft 435 kts 269°
2026-04-22 02:32 46.82513 -108.58269 37799 ft 435 kts 269°
2026-04-22 02:32 46.82854 -108.67107 37800 ft 437 kts 269°
2026-04-22 02:33 46.83191 -108.75974 37800 ft 438 kts 269°
2026-04-22 02:33 46.83519 -108.84805 37779 ft 439 kts 269°
2026-04-22 02:34 46.83842 -108.93709 37794 ft 440 kts 269°
2026-04-22 02:34 46.84160 -109.02634 37817 ft 440 kts 269°
2026-04-22 02:35 46.84472 -109.11551 37848 ft 438 kts 268°
2026-04-22 02:35 46.84773 -109.20344 37807 ft 430 kts 268°
2026-04-22 02:36 46.85062 -109.29057 37824 ft 429 kts 268°
2026-04-22 02:36 46.85344 -109.37767 37824 ft 429 kts 268°
2026-04-22 02:37 46.85619 -109.46476 37823 ft 430 kts 268°
2026-04-22 02:37 46.85888 -109.55201 37838 ft 430 kts 267°
2026-04-22 02:38 46.86152 -109.63949 37826 ft 432 kts 267°
2026-04-22 02:38 46.86412 -109.72722 37818 ft 432 kts 267°
2026-04-22 02:39 46.86664 -109.81494 37819 ft 432 kts 267°
2026-04-22 02:39 46.86909 -109.90267 37820 ft 432 kts 266°
2026-04-22 02:40 46.87148 -109.99035 37824 ft 432 kts 266°
2026-04-22 02:40 46.87380 -110.07825 37805 ft 433 kts 266°
2026-04-22 02:41 46.87685 -110.16639 37814 ft 435 kts 267°
2026-04-22 02:41 46.88058 -110.25481 37809 ft 436 kts 267°
2026-04-22 02:42 46.88421 -110.34339 37822 ft 437 kts 267°
2026-04-22 02:42 46.88764 -110.43203 37848 ft 437 kts 267°
2026-04-22 02:43 46.89100 -110.52071 37829 ft 437 kts 267°
2026-04-22 02:43 46.89430 -110.60944 37826 ft 437 kts 267°
2026-04-22 02:44 46.89750 -110.69799 37833 ft 435 kts 267°
2026-04-22 02:44 46.90061 -110.78649 37821 ft 436 kts 267°
2026-04-22 02:45 46.90365 -110.87440 37832 ft 436 kts 266°
2026-04-22 02:45 46.90664 -110.96301 37821 ft 436 kts 266°
2026-04-22 02:46 46.90956 -111.05181 37803 ft 438 kts 266°
2026-04-22 02:46 46.91242 -111.14078 37752 ft 437 kts 266°
2026-04-22 02:47 46.91524 -111.22928 37793 ft 437 kts 266°
2026-04-22 02:47 46.91792 -111.31811 37794 ft 437 kts 266°
2026-04-22 02:48 46.92060 -111.40733 37791 ft 440 kts 266°
2026-04-22 02:48 46.92322 -111.49707 37785 ft 443 kts 266°
2026-04-22 02:49 46.92574 -111.58717 37791 ft 444 kts 266°
2026-04-22 02:49 46.92827 -111.67751 37788 ft 445 kts 266°
2026-04-22 02:50 46.93072 -111.76781 37823 ft 442 kts 265°
2026-04-22 02:50 46.93303 -111.85806 37794 ft 444 kts 265°
2026-04-22 02:51 46.93532 -111.94851 37790 ft 446 kts 265°
2026-04-22 02:51 46.93700 -112.03931 37775 ft 445 kts 263°
2026-04-22 02:52 46.93580 -112.12978 37780 ft 445 kts 262°
2026-04-22 02:52 46.93401 -112.22035 37797 ft 446 kts 262°
2026-04-22 02:53 46.93222 -112.31128 37786 ft 447 kts 262°
2026-04-22 02:53 46.93055 -112.40228 37773 ft 447 kts 262°
2026-04-22 02:54 46.92890 -112.49319 37756 ft 447 kts 262°
2026-04-22 02:54 46.92714 -112.58399 37771 ft 446 kts 262°
2026-04-22 02:55 46.92531 -112.67445 37780 ft 444 kts 261°
2026-04-22 02:55 46.92340 -112.76473 37765 ft 443 kts 261°
2026-04-22 02:56 46.92144 -112.85471 37746 ft 442 kts 261°
2026-04-22 02:56 46.91940 -112.94446 37746 ft 442 kts 261°
2026-04-22 02:57 46.91733 -113.03374 37744 ft 442 kts 261°
2026-04-22 02:57 46.91515 -113.12373 37756 ft 444 kts 261°
2026-04-22 02:58 46.91288 -113.21407 37725 ft 446 kts 261°
2026-04-22 02:58 46.91056 -113.30479 37722 ft 446 kts 261°
2026-04-22 02:59 46.90814 -113.39547 37717 ft 446 kts 261°
2026-04-22 02:59 46.90567 -113.48618 37713 ft 446 kts 261°
2026-04-22 03:00 46.90311 -113.57689 37713 ft 447 kts 261°
2026-04-22 03:00 46.90048 -113.66796 37699 ft 449 kts 261°
2026-04-22 03:01 46.89793 -113.75898 37672 ft 448 kts 262°
2026-04-22 03:01 46.89562 -113.84984 37699 ft 448 kts 260°
2026-04-22 03:02 46.89236 -113.94090 37696 ft 450 kts 260°
2026-04-22 03:02 46.88924 -114.03239 37704 ft 452 kts 260°
2026-04-22 03:03 46.88618 -114.12429 37704 ft 453 kts 260°
2026-04-22 03:03 46.88310 -114.21646 37689 ft 454 kts 260°
2026-04-22 03:04 46.87994 -114.30877 37699 ft 455 kts 260°
2026-04-22 03:04 46.87666 -114.40118 37719 ft 456 kts 260°
2026-04-22 03:05 46.87330 -114.49386 37708 ft 457 kts 260°
2026-04-22 03:05 46.86988 -114.58673 37692 ft 458 kts 260°
2026-04-22 03:06 46.86639 -114.67961 37687 ft 458 kts 260°
2026-04-22 03:06 46.86282 -114.77229 37701 ft 456 kts 259°
2026-04-22 03:07 46.85917 -114.86484 37687 ft 456 kts 259°
2026-04-22 03:08 46.85192 -115.04386 37693 ft 455 kts 259°
2026-04-22 03:08 46.84806 -115.13591 37684 ft 454 kts 259°
2026-04-22 03:09 46.84416 -115.22789 37676 ft 453 kts 259°
2026-04-22 03:09 46.84020 -115.31963 37672 ft 453 kts 259°
2026-04-22 03:10 46.83610 -115.41173 37632 ft 456 kts 259°
2026-04-22 03:10 46.83194 -115.50399 37620 ft 454 kts 259°
2026-04-22 03:11 46.82777 -115.59562 37599 ft 450 kts 258°
2026-04-22 03:11 46.82354 -115.68663 37619 ft 449 kts 258°
2026-04-22 03:12 46.81913 -115.77829 37581 ft 455 kts 258°
2026-04-22 03:12 46.81236 -115.91787 37606 ft 465 kts 258°
2026-04-22 03:13 46.80783 -116.01191 37609 ft 457 kts 258°
2026-04-22 03:13 46.80319 -116.10384 37624 ft 458 kts 258°
2026-04-22 03:14 46.79840 -116.19669 37641 ft 460 kts 258°
2026-04-22 03:14 46.79355 -116.28990 37643 ft 462 kts 258°
2026-04-22 03:15 46.78863 -116.38329 37642 ft 462 kts 258°
2026-04-22 03:15 46.78365 -116.47683 37661 ft 463 kts 258°
2026-04-22 03:16 46.77856 -116.57043 37667 ft 464 kts 258°
2026-04-22 03:16 46.77339 -116.66431 37715 ft 465 kts 258°
2026-04-22 03:17 46.76811 -116.75846 37720 ft 466 kts 258°
2026-04-22 03:17 46.76276 -116.85263 37737 ft 466 kts 258°
2026-04-22 03:18 46.75735 -116.94685 37752 ft 466 kts 258°
2026-04-22 03:18 46.75167 -117.04097 37760 ft 464 kts 256°
2026-04-22 03:19 46.73788 -117.13170 37761 ft 454 kts 245°
2026-04-22 03:19 46.71533 -117.21704 37718 ft 451 kts 242°
2026-04-22 03:20 46.69207 -117.30187 37734 ft 451 kts 242°
2026-04-22 03:20 46.66895 -117.38673 37756 ft 451 kts 242°
2026-04-22 03:21 46.64586 -117.47180 37739 ft 452 kts 242°
2026-04-22 03:21 46.62279 -117.55678 37722 ft 451 kts 242°
2026-04-22 03:22 46.59986 -117.64096 37747 ft 451 kts 242°
2026-04-22 03:22 46.57670 -117.72560 37772 ft 450 kts 242°
2026-04-22 03:23 46.55346 -117.81022 37755 ft 451 kts 242°
2026-04-22 03:23 46.53016 -117.89479 37751 ft 451 kts 242°
2026-04-22 03:24 46.50677 -117.97936 37752 ft 452 kts 242°
2026-04-22 03:24 46.48331 -118.06384 37783 ft 451 kts 242°
2026-04-22 03:25 46.45976 -118.14849 37754 ft 453 kts 242°
2026-04-22 03:25 46.43603 -118.23338 37756 ft 455 kts 242°
2026-04-22 03:26 46.41218 -118.31841 37747 ft 456 kts 242°
2026-04-22 03:26 46.38823 -118.40351 37757 ft 457 kts 242°
2026-04-22 03:27 46.36413 -118.48883 37759 ft 458 kts 242°
2026-04-22 03:27 46.33992 -118.57429 37748 ft 459 kts 242°
2026-04-22 03:28 46.31565 -118.65966 37743 ft 459 kts 242°
2026-04-22 03:28 46.29131 -118.74494 37737 ft 458 kts 242°
2026-04-22 03:29 46.26694 -118.83003 37735 ft 458 kts 242°
2026-04-22 03:29 46.24255 -118.91489 37736 ft 457 kts 241°
2026-04-22 03:30 46.22223 -118.98537 37731 ft 457 kts 241°
2026-04-22 03:30 46.19775 -119.07002 37731 ft 457 kts 241°
2026-04-22 03:31 46.18419 -119.11679 37756 ft 457 kts 242°
2026-04-22 03:31 46.16032 -119.19886 37741 ft 458 kts 242°
2026-04-22 03:32 46.13559 -119.28363 37722 ft 459 kts 242°
2026-04-22 03:32 46.11075 -119.36849 37730 ft 460 kts 242°
2026-04-22 03:33 46.08605 -119.45271 37581 ft 451 kts 242°
2026-04-22 03:33 46.07382 -119.49425 36985 ft 450 kts 241°
2026-04-22 03:33 46.06162 -119.53563 36378 ft 448 kts 240°
2026-04-22 03:34 46.04948 -119.57672 35915 ft 444 kts 240°
2026-04-22 03:34 46.03744 -119.61746 35423 ft 440 kts 240°
2026-04-22 03:34 46.02548 -119.65785 34916 ft 437 kts 239°
2026-04-22 03:34 46.01357 -119.69797 34429 ft 434 kts 239°
2026-04-22 03:35 46.00174 -119.73774 33933 ft 431 kts 238°
2026-04-22 03:35 45.98996 -119.77728 33391 ft 429 kts 238°
2026-04-22 03:35 45.97824 -119.81654 32869 ft 426 kts 239°
2026-04-22 03:35 45.96656 -119.85557 32357 ft 423 kts 239°
2026-04-22 03:36 45.95497 -119.89429 31854 ft 420 kts 239°
2026-04-22 03:36 45.94346 -119.93269 31368 ft 417 kts 239°
2026-04-22 03:36 45.93200 -119.97086 30898 ft 415 kts 239°
2026-04-22 03:36 45.92076 -120.00825 30433 ft 412 kts 239°
2026-04-22 03:37 45.90940 -120.04596 29963 ft 411 kts 239°
2026-04-22 03:37 45.89807 -120.08351 29439 ft 409 kts 240°
2026-04-22 03:37 45.88664 -120.12134 28917 ft 407 kts 240°
2026-04-22 03:37 45.87542 -120.15849 28441 ft 405 kts 239°
2026-04-22 03:38 45.86423 -120.19544 27971 ft 402 kts 239°
2026-04-22 03:38 45.85310 -120.23212 27498 ft 400 kts 239°
2026-04-22 03:38 45.84215 -120.26814 27019 ft 398 kts 240°
2026-04-22 03:38 45.83110 -120.30447 26556 ft 397 kts 240°
2026-04-22 03:39 45.82009 -120.34062 26097 ft 394 kts 240°
2026-04-22 03:39 45.80913 -120.37654 25654 ft 393 kts 240°
2026-04-22 03:39 45.79820 -120.41232 25203 ft 391 kts 240°
2026-04-22 03:39 45.78732 -120.44789 24772 ft 389 kts 240°
2026-04-22 03:40 45.77646 -120.48336 24340 ft 388 kts 240°
2026-04-22 03:40 45.76563 -120.51872 23889 ft 388 kts 241°
2026-04-22 03:40 45.75619 -120.55509 23424 ft 392 kts 248°
2026-04-22 03:40 45.74880 -120.59271 22893 ft 393 kts 250°
2026-04-22 03:41 45.74208 -120.63063 22389 ft 392 kts 251°
2026-04-22 03:41 45.73543 -120.66831 21918 ft 390 kts 251°
2026-04-22 03:41 45.72862 -120.70576 21460 ft 388 kts 251°
2026-04-22 03:41 45.72168 -120.74288 20995 ft 386 kts 250°
2026-04-22 03:42 45.71462 -120.77985 20557 ft 384 kts 250°
2026-04-22 03:42 45.70752 -120.81657 20112 ft 383 kts 250°
2026-04-22 03:42 45.70040 -120.85319 19680 ft 381 kts 250°
2026-04-22 03:42 45.69329 -120.88964 19209 ft 380 kts 250°
2026-04-22 03:43 45.68619 -120.92596 18777 ft 378 kts 250°
2026-04-22 03:43 45.67912 -120.96204 18338 ft 376 kts 250°
2026-04-22 03:43 45.67207 -120.99799 17849 ft 375 kts 250°
2026-04-22 03:43 45.66504 -121.03379 17361 ft 373 kts 251°
2026-04-22 03:44 45.65803 -121.06939 16969 ft 369 kts 251°
2026-04-22 03:44 45.65114 -121.10445 16607 ft 365 kts 251°
2026-04-22 03:44 45.64432 -121.13921 16175 ft 362 kts 251°
2026-04-22 03:44 45.63752 -121.17378 15733 ft 360 kts 251°
2026-04-22 03:45 45.63076 -121.20818 15311 ft 359 kts 250°
2026-04-22 03:45 45.62410 -121.24203 14891 ft 357 kts 250°
2026-04-22 03:45 45.61737 -121.27609 14480 ft 355 kts 251°
2026-04-22 03:45 45.61065 -121.31003 14034 ft 354 kts 252°
2026-04-22 03:46 45.60398 -121.34383 13621 ft 353 kts 252°
2026-04-22 03:46 45.59731 -121.37749 13171 ft 352 kts 252°
2026-04-22 03:46 45.59067 -121.41078 12868 ft 343 kts 252°
2026-04-22 03:46 45.58421 -121.44303 12584 ft 334 kts 252°
2026-04-22 03:47 45.57788 -121.47470 12195 ft 329 kts 252°
2026-04-22 03:47 45.57163 -121.50583 11877 ft 323 kts 253°
2026-04-22 03:47 45.56552 -121.53630 11571 ft 317 kts 252°
2026-04-22 03:47 45.55948 -121.56634 11298 ft 314 kts 253°
2026-04-22 03:48 45.55349 -121.59605 11000 ft 309 kts 254°
2026-04-22 03:48 45.54766 -121.62500 10738 ft 306 kts 254°
2026-04-22 03:48 45.54189 -121.65359 10464 ft 291 kts 254°
2026-04-22 03:48 45.53638 -121.68076 10188 ft 273 kts 255°
2026-04-22 03:49 45.53125 -121.70611 9936 ft 260 kts 256°
2026-04-22 03:49 45.52940 -121.73109 9691 ft 253 kts 274°
2026-04-22 03:49 45.53091 -121.75650 9446 ft 261 kts 274°
2026-04-22 03:49 45.53216 -121.78245 9217 ft 263 kts 274°
2026-04-22 03:50 45.53331 -121.80823 8979 ft 263 kts 274°
2026-04-22 03:50 45.53440 -121.83382 8706 ft 251 kts 274°
2026-04-22 03:50 45.53540 -121.85797 8495 ft 242 kts 274°
2026-04-22 03:50 45.53645 -121.88245 8266 ft 252 kts 274°
2026-04-22 03:51 45.53748 -121.90741 8024 ft 253 kts 274°
2026-04-22 03:51 45.53846 -121.93235 7806 ft 250 kts 274°
2026-04-22 03:51 45.53944 -121.95686 7544 ft 244 kts 274°
2026-04-22 03:51 45.54038 -121.98075 7347 ft 241 kts 274°
2026-04-22 03:52 45.54136 -122.00446 7134 ft 236 kts 274°
2026-04-22 03:52 45.54227 -122.02753 6903 ft 228 kts 274°
2026-04-22 03:52 45.54136 -122.04951 6827 ft 221 kts 262°
2026-04-22 03:52 45.53903 -122.07145 6527 ft 229 kts 263°
2026-04-22 03:53 45.53690 -122.09384 6224 ft 225 kts 263°
2026-04-22 03:53 45.53482 -122.11570 5989 ft 220 kts 263°
2026-04-22 03:53 45.53276 -122.13708 5728 ft 215 kts 263°
2026-04-22 03:53 45.53074 -122.15793 5506 ft 211 kts 263°
2026-04-22 03:54 45.52872 -122.17868 5295 ft 211 kts 263°
2026-04-22 03:54 45.52670 -122.19950 5080 ft 213 kts 263°
2026-04-22 03:54 45.52465 -122.22045 4863 ft 214 kts 263°
2026-04-22 03:54 45.52258 -122.24146 4644 ft 214 kts 263°
2026-04-22 03:55 45.52053 -122.26251 4406 ft 215 kts 263°
2026-04-22 03:55 45.51845 -122.28361 4182 ft 215 kts 264°
2026-04-22 03:55 45.51637 -122.30467 3951 ft 214 kts 264°
2026-04-22 03:55 45.51429 -122.32567 3730 ft 213 kts 264°
2026-04-22 03:56 45.51223 -122.34653 3513 ft 212 kts 264°
2026-04-22 03:56 45.51019 -122.36698 3294 ft 205 kts 264°
2026-04-22 03:56 45.50878 -122.38659 3093 ft 190 kts 278°
2026-04-22 03:56 45.51263 -122.40377 2894 ft 178 kts 293°
2026-04-22 03:57 45.51737 -122.42025 2646 ft 182 kts 295°
2026-04-22 03:57 45.52293 -122.43635 2403 ft 179 kts 298°
2026-04-22 03:57 45.52885 -122.45174 2144 ft 176 kts 299°
2026-04-22 03:57 45.53475 -122.46687 1910 ft 173 kts 299°
2026-04-22 03:58 45.54051 -122.48159 1732 ft 166 kts 299°
2026-04-22 03:58 45.54607 -122.49578 1448 ft 161 kts 299°
2026-04-22 03:58 45.55140 -122.50939 1216 ft 153 kts 298°
2026-04-22 03:58 45.55641 -122.52224 999 ft 143 kts 298°
2026-04-22 03:59 45.56104 -122.53411 845 ft 135 kts 298°
2026-04-22 03:59 45.56568 -122.54597 669 ft 138 kts 300°
2026-04-22 03:59 45.57071 -122.55786 479 ft 141 kts 299°
2026-04-22 03:59 45.57528 -122.57034 307 ft 143 kts 301°
2026-04-22 04:00 45.57996 -122.58206 93 ft 132 kts 297°
2026-04-22 04:00 45.58410 -122.59309 33 ft 99 kts 298°
2026-04-22 04:00 45.58608 -122.59812 35 ft 35 kts 298°
2026-04-22 04:00 45.58639 -122.60036 34 ft 17 kts 268°
2026-04-22 04:01 45.58637 -122.60158 33 ft 15 kts 270°
2026-04-22 04:01 45.58639 -122.60307 33 ft 15 kts 271°
2026-04-22 04:01 45.58641 -122.60456 32 ft 15 kts 271°
2026-04-22 04:01 45.58641 -122.60623 32 ft 23 kts 269°
2026-04-22 04:02 45.58640 -122.60807 32 ft 17 kts 270°
2026-04-22 04:02 45.58588 -122.60969 32 ft 26 kts 228°
2026-04-22 04:02 45.58440 -122.61183 32 ft 30 kts 224°
2026-04-22 04:02 45.58311 -122.61340 32 ft 21 kts 193°
2026-04-22 04:03 45.58195 -122.61230 31 ft 20 kts 136°
2026-04-22 04:03 45.58095 -122.61089 32 ft 20 kts 135°
2026-04-22 04:03 45.58002 -122.60957 32 ft 15 kts 135°
2026-04-22 04:03 45.57922 -122.60924 32 ft 9 kts 214°
2026-04-22 04:04 45.57884 -122.60975 31 ft 0 kts 224°